Year,Month,Day,Hour,Minute,Value (Times are PST for temperature in C)
2009,11,13,00,00,5.30
2009,11,13,00,01,5.30
2009,11,13,00,05,5.30
2009,11,13,00,06,5.30
2009,11,13,00,07,5.30
2009,11,13,00,08,5.30
2009,11,13,00,09,5.30
2009,11,13,00,10,5.30
2009,11,13,00,11,5.30
2009,11,13,00,12,5.30
2009,11,13,00,13,5.30
2009,11,13,00,14,5.30
2009,11,13,00,15,5.30
2009,11,13,00,16,5.30
2009,11,13,00,17,5.30
2009,11,13,00,18,5.30
2009,11,13,00,19,5.30
2009,11,13,00,20,5.30
2009,11,13,00,21,5.30
2009,11,13,00,22,5.30
2009,11,13,00,23,5.30
2009,11,13,00,24,5.30
2009,11,13,00,25,5.30
2009,11,13,00,26,5.30
2009,11,13,00,27,5.30
2009,11,13,00,28,5.30
2009,11,13,00,29,5.30
2009,11,13,00,30,5.30
2009,11,13,00,31,5.30
2009,11,13,00,32,5.30
2009,11,13,00,33,5.20
2009,11,13,00,34,5.20
2009,11,13,00,35,5.20
2009,11,13,00,36,5.20
2009,11,13,00,37,5.20
2009,11,13,00,38,5.20
2009,11,13,00,39,5.20
2009,11,13,00,40,5.20
2009,11,13,00,41,5.20
2009,11,13,00,42,5.20
2009,11,13,00,43,5.20
2009,11,13,00,44,5.20
2009,11,13,00,45,5.20
2009,11,13,00,46,5.20
2009,11,13,00,47,5.20
2009,11,13,00,48,5.20
2009,11,13,00,49,5.20
2009,11,13,00,50,5.20
2009,11,13,00,51,5.20
2009,11,13,00,52,5.20
2009,11,13,00,53,5.20
2009,11,13,00,54,5.20
2009,11,13,00,55,5.20
2009,11,13,00,56,5.20
2009,11,13,00,57,5.20
2009,11,13,00,58,5.20
2009,11,13,00,59,5.20
2009,11,13,01,00,5.10
2009,11,13,01,01,5.20
2009,11,13,01,02,5.20
2009,11,13,01,03,5.30
2009,11,13,01,04,5.30
2009,11,13,01,05,5.30
2009,11,13,01,06,5.40
2009,11,13,01,07,5.40
2009,11,13,01,08,5.40
2009,11,13,01,09,5.40
2009,11,13,01,10,5.40
2009,11,13,01,11,5.40
2009,11,13,01,12,5.40
2009,11,13,01,13,5.40
2009,11,13,01,14,5.30
2009,11,13,01,15,5.30
2009,11,13,01,16,5.30
2009,11,13,01,17,5.30
2009,11,13,01,18,5.30
2009,11,13,01,19,5.30
2009,11,13,01,20,5.30
2009,11,13,01,21,5.30
2009,11,13,01,22,5.30
2009,11,13,01,23,5.20
2009,11,13,01,24,5.20
2009,11,13,01,25,5.20
2009,11,13,01,26,5.20
2009,11,13,01,27,5.20
2009,11,13,01,28,5.20
2009,11,13,01,29,5.20
2009,11,13,01,30,5.20
2009,11,13,01,31,5.20
2009,11,13,01,32,5.20
2009,11,13,01,33,5.20
2009,11,13,01,34,5.20
2009,11,13,01,35,5.20
2009,11,13,01,36,5.20
2009,11,13,01,37,5.20
2009,11,13,01,38,5.10
2009,11,13,01,39,5.10
2009,11,13,01,40,5.10
2009,11,13,01,41,5.10
2009,11,13,01,42,5.10
2009,11,13,01,43,5.10
2009,11,13,01,44,5.10
2009,11,13,01,45,5.10
2009,11,13,01,46,5.10
2009,11,13,01,47,5.10
2009,11,13,01,48,5.10
2009,11,13,01,49,5.10
2009,11,13,01,50,5.10
2009,11,13,01,51,5.00
2009,11,13,01,52,5.00
2009,11,13,01,53,5.00
2009,11,13,01,54,5.00
2009,11,13,01,55,5.00
2009,11,13,01,56,5.00
2009,11,13,01,57,5.00
2009,11,13,01,58,4.90
2009,11,13,01,59,4.90
2009,11,13,02,00,4.90
2009,11,13,02,01,4.90
2009,11,13,02,02,4.90
2009,11,13,02,03,4.90
2009,11,13,02,04,4.90
2009,11,13,02,05,4.90
2009,11,13,02,06,4.90
2009,11,13,02,07,4.90
2009,11,13,02,08,4.90
2009,11,13,02,09,4.90
2009,11,13,02,10,4.90
2009,11,13,02,11,4.90
2009,11,13,02,12,4.90
2009,11,13,02,13,4.90
2009,11,13,02,14,4.90
2009,11,13,02,15,4.90
2009,11,13,02,16,4.90
2009,11,13,02,17,5.00
2009,11,13,02,18,5.00
2009,11,13,02,19,5.00
2009,11,13,02,20,5.00
2009,11,13,02,21,5.00
2009,11,13,02,22,5.00
2009,11,13,02,23,5.00
2009,11,13,02,24,5.00
2009,11,13,02,25,5.00
2009,11,13,02,26,5.00
2009,11,13,02,27,5.00
2009,11,13,02,28,5.10
2009,11,13,02,29,5.10
2009,11,13,02,30,5.10
2009,11,13,02,31,5.10
2009,11,13,02,32,5.10
2009,11,13,02,33,5.10
2009,11,13,02,34,5.10
2009,11,13,02,35,5.10
2009,11,13,02,36,5.10
2009,11,13,02,37,5.10
2009,11,13,02,38,5.10
2009,11,13,02,39,5.10
2009,11,13,02,40,5.10
2009,11,13,02,41,5.10
2009,11,13,02,42,5.10
2009,11,13,02,43,5.10
2009,11,13,02,44,5.10
2009,11,13,02,45,5.10
2009,11,13,02,46,5.10
2009,11,13,02,47,5.10
2009,11,13,02,48,5.10
2009,11,13,02,49,5.10
2009,11,13,02,50,5.10
2009,11,13,02,51,5.10
2009,11,13,02,52,5.10
2009,11,13,02,53,5.10
2009,11,13,02,54,5.10
2009,11,13,02,55,5.10
2009,11,13,02,56,5.10
2009,11,13,02,57,5.10
2009,11,13,02,58,5.10
2009,11,13,02,59,5.10
2009,11,13,03,00,5.10
2009,11,13,03,01,5.10
2009,11,13,03,02,5.10
2009,11,13,03,03,5.10
2009,11,13,03,04,5.10
2009,11,13,03,05,5.10
2009,11,13,03,06,5.10
2009,11,13,03,07,5.10
2009,11,13,03,08,5.10
2009,11,13,03,09,5.10
2009,11,13,03,10,5.10
2009,11,13,03,11,5.10
2009,11,13,03,12,5.00
2009,11,13,03,13,5.00
2009,11,13,03,14,5.00
2009,11,13,03,15,5.00
2009,11,13,03,16,5.00
2009,11,13,03,17,5.00
2009,11,13,03,18,5.00
2009,11,13,03,19,5.00
2009,11,13,03,20,5.00
2009,11,13,03,21,5.00
2009,11,13,03,22,5.00
2009,11,13,03,23,5.00
2009,11,13,03,24,5.00
2009,11,13,03,25,5.00
2009,11,13,03,26,5.00
2009,11,13,03,27,5.00
2009,11,13,03,28,5.00
2009,11,13,03,29,4.90
2009,11,13,03,30,4.90
2009,11,13,03,31,4.90
2009,11,13,03,32,4.90
2009,11,13,03,33,4.90
2009,11,13,03,34,4.90
2009,11,13,03,35,4.90
2009,11,13,03,36,4.90
2009,11,13,03,37,4.90
2009,11,13,03,38,4.90
2009,11,13,03,39,4.90
2009,11,13,03,40,4.80
2009,11,13,03,41,4.80
2009,11,13,03,42,4.80
2009,11,13,03,43,4.80
2009,11,13,03,44,4.80
2009,11,13,03,45,4.80
2009,11,13,03,46,4.70
2009,11,13,03,47,4.70
2009,11,13,03,48,4.70
2009,11,13,03,49,4.70
2009,11,13,03,50,4.70
2009,11,13,03,51,4.70
2009,11,13,03,52,4.60
2009,11,13,03,53,4.60
2009,11,13,03,54,4.60
2009,11,13,03,55,4.60
2009,11,13,03,56,4.60
2009,11,13,03,57,4.50
2009,11,13,03,58,4.50
2009,11,13,03,59,4.50
2009,11,13,04,00,4.50
2009,11,13,04,01,4.40
2009,11,13,04,02,4.40
2009,11,13,04,03,4.40
2009,11,13,04,04,4.40
2009,11,13,04,05,4.30
2009,11,13,04,06,4.30
2009,11,13,04,07,4.30
2009,11,13,04,08,4.30
2009,11,13,04,09,4.30
2009,11,13,04,10,4.20
2009,11,13,04,11,4.20
2009,11,13,04,12,4.20
2009,11,13,04,13,4.20
2009,11,13,04,14,4.20
2009,11,13,04,15,4.20
2009,11,13,04,16,4.20
2009,11,13,04,17,4.20
2009,11,13,04,18,4.20
2009,11,13,04,19,4.20
2009,11,13,04,20,4.20
2009,11,13,04,21,4.20
2009,11,13,04,22,4.20
2009,11,13,04,23,4.20
2009,11,13,04,24,4.20
2009,11,13,04,25,4.20
2009,11,13,04,26,4.20
2009,11,13,04,27,4.10
2009,11,13,04,28,4.10
2009,11,13,04,29,4.10
2009,11,13,04,30,4.10
2009,11,13,04,31,4.10
2009,11,13,04,32,4.10
2009,11,13,04,33,4.10
2009,11,13,04,34,4.10
2009,11,13,04,35,4.10
2009,11,13,04,36,4.10
2009,11,13,04,37,4.10
2009,11,13,04,38,4.10
2009,11,13,04,39,4.10
2009,11,13,04,40,4.10
2009,11,13,04,41,4.00
2009,11,13,04,42,4.00
2009,11,13,04,43,4.00
2009,11,13,04,44,4.00
2009,11,13,04,45,4.00
2009,11,13,04,46,4.00
2009,11,13,04,47,3.90
2009,11,13,04,48,3.90
2009,11,13,04,49,3.90
2009,11,13,04,50,3.90
2009,11,13,04,51,3.90
2009,11,13,04,52,3.90
2009,11,13,04,53,3.90
2009,11,13,04,54,3.90
2009,11,13,04,55,3.90
2009,11,13,04,56,3.90
2009,11,13,04,57,3.90
2009,11,13,04,58,3.90
2009,11,13,04,59,3.90
2009,11,13,05,00,3.90
2009,11,13,05,01,3.90
2009,11,13,05,02,3.90
2009,11,13,05,03,3.90
2009,11,13,05,04,3.90
2009,11,13,05,05,3.90
2009,11,13,05,06,3.90
2009,11,13,05,07,3.90
2009,11,13,05,08,3.90
2009,11,13,05,09,4.00
2009,11,13,05,10,4.00
2009,11,13,05,11,4.00
2009,11,13,05,12,4.00
2009,11,13,05,13,4.00
2009,11,13,05,14,4.00
2009,11,13,05,15,4.00
2009,11,13,05,16,4.00
2009,11,13,05,17,4.00
2009,11,13,05,18,4.00
2009,11,13,05,19,4.00
2009,11,13,05,20,4.00
2009,11,13,05,21,4.00
2009,11,13,05,22,4.00
2009,11,13,05,23,4.00
2009,11,13,05,24,4.00
2009,11,13,05,25,4.00
2009,11,13,05,26,4.00
2009,11,13,05,27,4.00
2009,11,13,05,28,4.10
2009,11,13,05,29,4.10
2009,11,13,05,30,4.10
2009,11,13,05,31,4.10
2009,11,13,05,32,4.10
2009,11,13,05,33,4.10
2009,11,13,05,34,4.10
2009,11,13,05,35,4.10
2009,11,13,05,36,4.10
2009,11,13,05,37,4.10
2009,11,13,05,38,4.10
2009,11,13,05,39,4.10
2009,11,13,05,40,4.20
2009,11,13,05,41,4.20
2009,11,13,05,42,4.20
2009,11,13,05,43,4.20
2009,11,13,05,44,4.20
2009,11,13,05,45,4.30
2009,11,13,05,46,4.30
2009,11,13,05,47,4.30
2009,11,13,05,48,4.30
2009,11,13,05,49,4.30
2009,11,13,05,50,4.30
2009,11,13,05,51,4.30
2009,11,13,05,52,4.20
2009,11,13,05,53,4.30
2009,11,13,05,54,4.30
2009,11,13,05,55,4.30
2009,11,13,05,56,4.30
2009,11,13,05,57,4.20
2009,11,13,05,58,4.20
2009,11,13,05,59,4.20
2009,11,13,06,00,4.20
2009,11,13,06,01,4.20
2009,11,13,06,02,4.20
2009,11,13,06,03,4.20
2009,11,13,06,04,4.20
2009,11,13,06,05,4.20
2009,11,13,06,06,4.20
2009,11,13,06,07,4.10
2009,11,13,06,08,4.10
2009,11,13,06,09,4.10
2009,11,13,06,10,4.10
2009,11,13,06,11,4.00
2009,11,13,06,12,4.00
2009,11,13,06,13,4.00
2009,11,13,06,14,4.00
2009,11,13,06,15,3.90
2009,11,13,06,16,3.90
2009,11,13,06,17,3.90
2009,11,13,06,18,3.90
2009,11,13,06,19,3.90
2009,11,13,06,20,3.90
2009,11,13,06,21,3.90
2009,11,13,06,22,3.90
2009,11,13,06,23,3.90
2009,11,13,06,24,3.80
2009,11,13,06,25,3.80
2009,11,13,06,26,3.80
2009,11,13,06,27,3.80
2009,11,13,06,28,3.80
2009,11,13,06,29,3.80
2009,11,13,06,30,3.80
2009,11,13,06,31,3.80
2009,11,13,06,32,3.80
2009,11,13,06,33,3.80
2009,11,13,06,34,3.80
2009,11,13,06,35,3.80
2009,11,13,06,36,3.80
2009,11,13,06,37,3.80
2009,11,13,06,38,3.90
2009,11,13,06,39,3.90
2009,11,13,06,40,3.90
2009,11,13,06,41,3.90
2009,11,13,06,42,3.90
2009,11,13,06,43,3.90
2009,11,13,06,44,3.90
2009,11,13,06,45,3.90
2009,11,13,06,46,3.90
2009,11,13,06,47,3.90
2009,11,13,06,48,3.90
2009,11,13,06,49,3.80
2009,11,13,08,00,3.50
2009,11,13,08,01,3.50
2009,11,13,08,02,3.50
2009,11,13,08,03,3.40
2009,11,13,08,04,3.40
2009,11,13,08,05,3.40
2009,11,13,08,06,3.40
2009,11,13,08,07,3.40
2009,11,13,08,08,3.40
2009,11,13,08,09,3.40
2009,11,13,08,10,3.50
2009,11,13,08,11,3.50
2009,11,13,08,12,3.50
2009,11,13,08,13,3.50
2009,11,13,08,14,3.50
2009,11,13,08,15,3.50
2009,11,13,08,16,3.50
2009,11,13,08,17,3.50
2009,11,13,08,18,3.50
2009,11,13,08,19,3.50
2009,11,13,08,20,3.50
2009,11,13,08,21,3.50
2009,11,13,08,22,3.50
2009,11,13,08,23,3.50
2009,11,13,08,24,3.50
2009,11,13,08,25,3.50
2009,11,13,08,26,3.50
2009,11,13,08,27,3.50
2009,11,13,08,28,3.50
2009,11,13,08,29,3.50
2009,11,13,08,30,3.50
2009,11,13,08,31,3.50
2009,11,13,08,32,3.50
2009,11,13,08,33,3.50
2009,11,13,08,34,3.60
2009,11,13,08,35,3.60
2009,11,13,08,36,3.60
2009,11,13,08,37,3.60
2009,11,13,08,38,3.70
2009,11,13,08,39,3.70
2009,11,13,08,40,3.70
2009,11,13,08,41,3.70
2009,11,13,08,42,3.80
2009,11,13,08,43,3.80
2009,11,13,08,44,3.80
2009,11,13,08,45,3.80
2009,11,13,08,46,3.80
2009,11,13,08,47,3.90
2009,11,13,08,48,3.90
2009,11,13,08,49,3.90
2009,11,13,08,50,3.90
2009,11,13,08,51,4.00
2009,11,13,08,52,4.00
2009,11,13,08,53,4.00
2009,11,13,08,54,4.10
2009,11,13,08,55,4.10
2009,11,13,08,56,4.10
2009,11,13,08,57,4.10
2009,11,13,08,58,4.20
2009,11,13,08,59,4.20
2009,11,13,09,00,4.20
2009,11,13,09,01,4.20
2009,11,13,09,02,4.20
2009,11,13,09,03,4.20
2009,11,13,09,04,4.20
2009,11,13,09,05,4.20
2009,11,13,09,06,4.20
2009,11,13,09,07,4.20
2009,11,13,09,08,4.20
2009,11,13,09,09,4.10
2009,11,13,09,10,4.10
2009,11,13,09,11,4.10
2009,11,13,09,12,4.10
2009,11,13,09,13,4.10
2009,11,13,09,14,4.10
2009,11,13,09,15,4.10
2009,11,13,09,16,4.10
2009,11,13,09,17,4.10
2009,11,13,09,18,4.20
2009,11,13,09,19,4.20
2009,11,13,09,20,4.30
2009,11,13,09,21,4.30
2009,11,13,09,22,4.30
2009,11,13,09,23,4.40
2009,11,13,09,24,4.50
2009,11,13,09,25,4.50
2009,11,13,09,26,4.60
2009,11,13,09,27,4.60
2009,11,13,09,28,4.60
2009,11,13,09,29,4.70
2009,11,13,09,30,4.70
2009,11,13,09,31,4.80
2009,11,13,09,32,4.80
2009,11,13,09,33,4.80
2009,11,13,09,34,4.90
2009,11,13,09,35,4.90
2009,11,13,09,36,5.00
2009,11,13,09,37,5.00
2009,11,13,09,38,5.10
2009,11,13,09,39,5.10
2009,11,13,09,40,5.10
2009,11,13,09,41,5.10
2009,11,13,09,42,5.10
2009,11,13,09,43,5.10
2009,11,13,09,44,5.10
2009,11,13,09,45,5.10
2009,11,13,09,46,5.10
2009,11,13,09,47,5.10
2009,11,13,09,48,5.20
2009,11,13,09,49,5.30
2009,11,13,09,50,5.30
2009,11,13,09,51,5.40
2009,11,13,09,52,5.40
2009,11,13,09,53,5.40
2009,11,13,09,54,5.50
2009,11,13,09,55,5.50
2009,11,13,09,56,5.60
2009,11,13,09,57,5.60
2009,11,13,09,58,5.70
2009,11,13,09,59,5.80
2009,11,13,10,00,5.80
2009,11,13,10,01,5.90
2009,11,13,10,02,5.90
2009,11,13,10,03,5.90
2009,11,13,10,04,5.90
2009,11,13,10,05,6.00
2009,11,13,10,06,6.10
2009,11,13,10,07,6.20
2009,11,13,10,08,6.30
2009,11,13,10,09,6.30
2009,11,13,10,10,6.40
2009,11,13,10,11,6.50
2009,11,13,10,12,6.60
2009,11,13,10,13,6.70
2009,11,13,10,14,6.80
2009,11,13,10,15,6.80
2009,11,13,10,16,6.80
2009,11,13,10,17,6.80
2009,11,13,10,18,6.80
2009,11,13,10,19,6.90
2009,11,13,10,20,6.90
2009,11,13,10,21,7.00
2009,11,13,10,22,7.10
2009,11,13,10,23,7.20
2009,11,13,10,24,7.20
2009,11,13,10,25,7.20
2009,11,13,10,26,7.20
2009,11,13,10,27,7.30
2009,11,13,10,28,7.30
2009,11,13,10,29,7.40
2009,11,13,10,30,7.40
2009,11,13,10,31,7.40
2009,11,13,10,32,7.40
2009,11,13,10,33,7.40
2009,11,13,10,34,7.30
2009,11,13,10,35,7.20
2009,11,13,10,36,7.20
2009,11,13,10,37,7.00
2009,11,13,10,38,6.90
2009,11,13,10,39,6.90
2009,11,13,10,40,6.90
2009,11,13,10,41,6.90
2009,11,13,10,42,6.90
2009,11,13,10,43,6.90
2009,11,13,10,44,6.80
2009,11,13,10,45,6.80
2009,11,13,10,46,6.80
2009,11,13,10,47,6.80
2009,11,13,10,48,6.80
2009,11,13,10,49,6.90
2009,11,13,10,50,6.90
2009,11,13,10,51,6.90
2009,11,13,10,52,7.00
2009,11,13,10,53,7.00
2009,11,13,10,54,7.10
2009,11,13,10,55,7.00
2009,11,13,10,56,6.90
2009,11,13,10,57,7.00
2009,11,13,10,58,7.00
2009,11,13,10,59,7.00
2009,11,13,11,00,7.10
2009,11,13,11,01,7.20
2009,11,13,11,02,7.20
2009,11,13,11,03,7.20
2009,11,13,11,04,7.20
2009,11,13,11,05,7.20
2009,11,13,11,06,7.20
2009,11,13,11,07,7.20
2009,11,13,11,08,7.20
2009,11,13,11,09,7.20
2009,11,13,11,10,7.30
2009,11,13,11,11,7.30
2009,11,13,11,12,7.30
2009,11,13,11,13,7.30
2009,11,13,11,14,7.20
2009,11,13,11,15,7.20
2009,11,13,11,16,7.20
2009,11,13,11,17,7.20
2009,11,13,11,18,7.20
2009,11,13,11,19,7.20
2009,11,13,11,20,7.20
2009,11,13,11,21,7.20
2009,11,13,11,22,7.10
2009,11,13,11,23,7.10
2009,11,13,11,24,7.10
2009,11,13,11,25,7.10
2009,11,13,11,26,7.20
2009,11,13,11,27,7.20
2009,11,13,11,28,7.20
2009,11,13,11,29,7.20
2009,11,13,11,30,7.20
2009,11,13,11,31,7.20
2009,11,13,11,32,7.30
2009,11,13,11,33,7.30
2009,11,13,11,34,7.40
2009,11,13,11,35,7.40
2009,11,13,11,36,7.50
2009,11,13,11,37,7.60
2009,11,13,11,38,7.60
2009,11,13,11,39,7.70
2009,11,13,11,40,7.70
2009,11,13,11,41,7.80
2009,11,13,11,42,7.80
2009,11,13,11,43,7.80
2009,11,13,11,44,7.90
2009,11,13,11,45,7.90
2009,11,13,11,46,7.90
2009,11,13,11,47,7.90
2009,11,13,11,48,7.90
2009,11,13,11,49,8.00
2009,11,13,11,50,8.00
2009,11,13,11,51,8.10
2009,11,13,11,52,8.10
2009,11,13,11,53,8.20
2009,11,13,11,54,8.20
2009,11,13,11,55,8.30
2009,11,13,11,56,8.20
2009,11,13,11,57,8.20
2009,11,13,11,58,8.20
2009,11,13,11,59,8.10
2009,11,13,12,00,8.10
2009,11,13,12,01,8.00
2009,11,13,12,02,8.00
2009,11,13,12,03,8.00
2009,11,13,12,04,8.10
2009,11,13,12,05,8.10
2009,11,13,12,06,8.10
2009,11,13,12,07,8.20
2009,11,13,12,08,8.20
2009,11,13,12,09,8.20
2009,11,13,12,10,8.30
2009,11,13,12,11,8.30
2009,11,13,12,12,8.30
2009,11,13,12,13,8.20
2009,11,13,12,14,8.20
2009,11,13,12,15,8.20
2009,11,13,12,16,8.20
2009,11,13,12,17,8.20
2009,11,13,12,18,8.20
2009,11,13,12,19,8.20
2009,11,13,12,20,8.10
2009,11,13,12,21,8.10
2009,11,13,12,22,8.10
2009,11,13,12,23,8.10
2009,11,13,12,24,8.10
2009,11,13,12,25,8.20
2009,11,13,12,26,8.20
2009,11,13,12,27,8.30
2009,11,13,12,28,8.30
2009,11,13,12,29,8.30
2009,11,13,12,30,8.30
2009,11,13,12,31,8.30
2009,11,13,12,32,8.30
2009,11,13,12,33,8.30
2009,11,13,12,34,8.30
2009,11,13,12,35,8.30
2009,11,13,12,36,8.30
2009,11,13,12,37,8.30
2009,11,13,12,38,8.30
2009,11,13,12,39,8.30
2009,11,13,12,40,8.30
2009,11,13,12,41,8.30
2009,11,13,12,42,8.30
2009,11,13,12,43,8.30
2009,11,13,12,44,8.40
2009,11,13,12,45,8.30
2009,11,13,12,46,8.30
2009,11,13,12,47,8.40
2009,11,13,12,48,8.40
2009,11,13,12,49,8.40
2009,11,13,12,50,8.40
2009,11,13,12,51,8.40
2009,11,13,12,52,8.40
2009,11,13,12,53,8.40
2009,11,13,12,54,8.40
2009,11,13,12,55,8.40
2009,11,13,12,56,8.40
2009,11,13,12,57,8.40
2009,11,13,12,58,8.40
2009,11,13,12,59,8.40
2009,11,13,13,00,8.40
2009,11,13,13,01,8.40
2009,11,13,13,02,8.40
2009,11,13,13,03,8.40
2009,11,13,13,04,8.40
2009,11,13,13,05,8.40
2009,11,13,13,06,8.40
2009,11,13,13,07,8.40
2009,11,13,13,08,8.40
2009,11,13,13,09,8.30
2009,11,13,13,10,8.40
2009,11,13,13,11,8.40
2009,11,13,13,12,8.40
2009,11,13,13,13,8.40
2009,11,13,13,14,8.40
2009,11,13,13,15,8.40
2009,11,13,13,16,8.40
2009,11,13,13,17,8.40
2009,11,13,13,18,8.40
2009,11,13,13,19,8.40
2009,11,13,13,20,8.40
2009,11,13,13,21,8.40
2009,11,13,13,22,8.30
2009,11,13,13,23,8.20
2009,11,13,13,24,8.20
2009,11,13,13,25,8.10
2009,11,13,13,26,8.00
2009,11,13,13,27,8.00
2009,11,13,13,28,7.90
2009,11,13,13,29,7.90
2009,11,13,13,30,7.90
2009,11,13,13,31,7.90
2009,11,13,13,32,8.00
2009,11,13,13,33,8.00
2009,11,13,13,34,8.10
2009,11,13,13,35,8.10
2009,11,13,13,36,8.20
2009,11,13,13,37,8.20
2009,11,13,13,38,8.20
2009,11,13,13,39,8.20
2009,11,13,13,40,8.30
2009,11,13,13,41,8.30
2009,11,13,13,42,8.30
2009,11,13,13,43,8.30
2009,11,13,13,44,8.40
2009,11,13,13,45,8.40
2009,11,13,13,46,8.50
2009,11,13,13,47,8.50
2009,11,13,13,48,8.50
2009,11,13,13,49,8.50
2009,11,13,13,50,8.50
2009,11,13,13,51,8.60
2009,11,13,13,52,8.60
2009,11,13,13,53,8.60
2009,11,13,13,54,8.60
2009,11,13,13,55,8.60
2009,11,13,13,56,8.50
2009,11,13,13,57,8.50
2009,11,13,13,58,8.40
2009,11,13,13,59,8.40
2009,11,13,14,00,8.40
2009,11,13,14,01,8.40
2009,11,13,14,02,8.30
2009,11,13,14,03,8.30
2009,11,13,14,04,8.30
2009,11,13,14,05,8.30
2009,11,13,14,06,8.30
2009,11,13,14,07,8.30
2009,11,13,14,08,8.40
2009,11,13,14,09,8.40
2009,11,13,14,10,8.40
2009,11,13,14,11,8.40
2009,11,13,14,12,8.30
2009,11,13,14,13,8.30
2009,11,13,14,14,8.30
2009,11,13,14,15,8.30
2009,11,13,14,16,8.30
2009,11,13,14,17,8.30
2009,11,13,14,18,8.30
2009,11,13,14,19,8.30
2009,11,13,14,20,8.30
2009,11,13,14,21,8.30
2009,11,13,14,22,8.30
2009,11,13,14,23,8.30
2009,11,13,14,24,8.30
2009,11,13,14,25,8.40
2009,11,13,14,26,8.40
2009,11,13,14,27,8.40
2009,11,13,14,28,8.40
2009,11,13,14,29,8.40
2009,11,13,14,30,8.30
2009,11,13,14,31,8.30
2009,11,13,14,32,8.20
2009,11,13,14,33,8.20
2009,11,13,14,34,8.20
2009,11,13,14,35,8.20
2009,11,13,14,36,8.20
2009,11,13,14,37,8.20
2009,11,13,14,38,8.20
2009,11,13,14,39,8.20
2009,11,13,14,40,8.20
2009,11,13,14,41,8.20
2009,11,13,14,42,8.20
2009,11,13,14,43,8.20
2009,11,13,14,44,8.10
2009,11,13,14,45,8.10
2009,11,13,14,46,8.10
2009,11,13,14,47,8.10
2009,11,13,14,48,8.00
2009,11,13,14,49,8.00
2009,11,13,14,50,7.90
2009,11,13,14,51,7.90
2009,11,13,14,52,7.90
2009,11,13,14,53,7.90
2009,11,13,14,54,7.90
2009,11,13,14,55,7.90
2009,11,13,14,56,7.90
2009,11,13,14,57,7.90
2009,11,13,14,58,7.90
2009,11,13,14,59,7.90
2009,11,13,15,00,7.90
2009,11,13,15,01,7.80
2009,11,13,15,02,7.80
2009,11,13,15,03,7.70
2009,11,13,15,04,7.60
2009,11,13,15,05,7.50
2009,11,13,15,06,7.40
2009,11,13,15,07,7.40
2009,11,13,15,08,7.30
2009,11,13,15,09,7.20
2009,11,13,15,10,7.10
2009,11,13,15,11,7.00
2009,11,13,15,12,6.90
2009,11,13,15,13,6.80
2009,11,13,15,14,6.80
2009,11,13,15,15,6.70
2009,11,13,15,16,6.70
2009,11,13,15,17,6.60
2009,11,13,15,18,6.50
2009,11,13,15,19,6.40
2009,11,13,15,20,6.30
2009,11,13,15,21,6.30
2009,11,13,15,22,6.20
2009,11,13,15,23,6.20
2009,11,13,15,24,6.10
2009,11,13,15,25,6.10
2009,11,13,15,26,6.10
2009,11,13,15,27,6.10
2009,11,13,15,28,6.10
2009,11,13,15,29,6.10
2009,11,13,15,30,6.10
2009,11,13,15,31,6.10
2009,11,13,15,32,6.00
2009,11,13,15,33,5.90
2009,11,13,15,34,5.90
2009,11,13,15,35,5.90
2009,11,13,15,36,5.80
2009,11,13,15,37,5.80
2009,11,13,15,38,5.80
2009,11,13,15,39,5.80
2009,11,13,15,40,5.70
2009,11,13,15,41,5.60
2009,11,13,15,42,5.50
2009,11,13,15,43,5.40
2009,11,13,15,44,5.40
2009,11,13,15,45,5.30
2009,11,13,15,46,5.30
2009,11,13,15,47,5.20
2009,11,13,15,48,5.20
2009,11,13,15,49,5.10
2009,11,13,15,50,5.00
2009,11,13,15,51,5.00
2009,11,13,15,52,5.00
2009,11,13,15,53,5.00
2009,11,13,15,54,5.10
2009,11,13,15,55,5.10
2009,11,13,15,56,5.10
2009,11,13,15,57,5.20
2009,11,13,15,58,5.20
2009,11,13,15,59,5.20
2009,11,13,16,00,5.20
2009,11,13,16,01,5.20
2009,11,13,16,02,5.30
2009,11,13,16,03,5.40
2009,11,13,16,04,5.50
2009,11,13,16,05,5.60
2009,11,13,16,06,5.60
2009,11,13,16,07,5.70
2009,11,13,16,08,5.60
2009,11,13,16,09,5.50
2009,11,13,16,10,5.40
2009,11,13,16,11,5.30
2009,11,13,16,12,5.30
2009,11,13,16,13,5.30
2009,11,13,16,14,5.20
2009,11,13,16,15,5.20
2009,11,13,16,16,5.20
2009,11,13,16,17,5.20
2009,11,13,16,18,5.20
2009,11,13,16,19,5.20
2009,11,13,16,20,5.20
2009,11,13,16,21,5.20
2009,11,13,16,22,5.20
2009,11,13,16,23,5.20
2009,11,13,16,24,5.30
2009,11,13,16,25,5.30
2009,11,13,16,26,5.30
2009,11,13,16,27,5.30
2009,11,13,16,28,5.30
2009,11,13,16,29,5.30
2009,11,13,16,30,5.30
2009,11,13,16,31,5.30
2009,11,13,16,32,5.30
2009,11,13,16,33,5.40
2009,11,13,16,34,5.40
2009,11,13,16,35,5.40
2009,11,13,16,36,5.50
2009,11,13,16,37,5.50
2009,11,13,16,38,5.40
2009,11,13,16,39,5.40
2009,11,13,16,40,5.30
2009,11,13,16,41,5.30
2009,11,13,16,42,5.30
2009,11,13,16,43,5.20
2009,11,13,16,44,5.20
2009,11,13,16,45,5.20
2009,11,13,16,46,5.20
2009,11,13,16,47,5.10
2009,11,13,16,48,5.10
2009,11,13,16,49,5.10
2009,11,13,16,50,5.00
2009,11,13,16,51,4.90
2009,11,13,16,52,4.80
2009,11,13,16,53,4.60
2009,11,13,16,54,4.50
2009,11,13,16,55,4.40
2009,11,13,16,56,4.40
2009,11,13,16,57,4.40
2009,11,13,16,58,4.30
2009,11,13,16,59,4.30
2009,11,13,17,00,4.30
2009,11,13,17,01,4.40
2009,11,13,17,02,4.30
2009,11,13,17,03,4.30
2009,11,13,17,04,4.30
2009,11,13,17,05,4.20
2009,11,13,17,06,4.20
2009,11,13,17,07,4.20
2009,11,13,17,08,4.20
2009,11,13,17,09,4.20
2009,11,13,17,10,4.10
2009,11,13,17,11,4.00
2009,11,13,17,12,3.90
2009,11,13,17,13,3.80
2009,11,13,17,14,3.70
2009,11,13,17,15,3.60
2009,11,13,17,16,3.50
2009,11,13,17,17,3.40
2009,11,13,17,18,3.30
2009,11,13,17,19,3.30
2009,11,13,17,20,3.30
2009,11,13,17,21,3.20
2009,11,13,17,22,3.10
2009,11,13,17,23,3.10
2009,11,13,17,24,3.00
2009,11,13,17,25,2.90
2009,11,13,17,26,2.90
2009,11,13,17,27,2.80
2009,11,13,17,28,2.80
2009,11,13,17,29,2.70
2009,11,13,17,30,2.70
2009,11,13,17,31,2.60
2009,11,13,17,32,2.60
2009,11,13,17,33,2.60
2009,11,13,17,34,2.50
2009,11,13,17,35,2.40
2009,11,13,17,36,2.40
2009,11,13,17,37,2.40
2009,11,13,17,38,2.40
2009,11,13,17,39,2.30
2009,11,13,17,40,2.30
2009,11,13,17,41,2.30
2009,11,13,17,42,2.30
2009,11,13,17,43,2.20
2009,11,13,17,44,2.20
2009,11,13,17,45,2.20
2009,11,13,17,46,2.10
2009,11,13,17,47,2.10
2009,11,13,17,48,2.10
2009,11,13,17,49,2.10
2009,11,13,17,50,2.00
2009,11,13,17,51,2.00
2009,11,13,17,52,1.90
2009,11,13,17,53,1.90
2009,11,13,17,54,1.80
2009,11,13,17,55,1.80
2009,11,13,17,56,1.70
2009,11,13,17,57,1.70
2009,11,13,17,58,1.80
2009,11,13,17,59,1.80
2009,11,13,18,00,1.80
2009,11,13,18,01,1.80
2009,11,13,18,02,1.80
2009,11,13,18,03,1.90
2009,11,13,18,04,2.00
2009,11,13,18,05,2.10
2009,11,13,18,06,2.20
2009,11,13,18,07,2.20
2009,11,13,18,08,2.20
2009,11,13,18,09,2.20
2009,11,13,18,10,2.20
2009,11,13,18,11,2.10
2009,11,13,18,12,2.10
2009,11,13,18,13,2.10
2009,11,13,18,14,2.10
2009,11,13,18,15,2.00
2009,11,13,18,16,2.00
2009,11,13,18,17,1.90
2009,11,13,18,18,1.90
2009,11,13,18,19,2.00
2009,11,13,18,20,2.00
2009,11,13,18,21,2.00
2009,11,13,18,22,2.00
2009,11,13,18,23,1.90
2009,11,13,18,24,1.90
2009,11,13,18,25,1.90
2009,11,13,18,26,1.80
2009,11,13,18,27,1.70
2009,11,13,18,28,1.70
2009,11,13,18,29,1.70
2009,11,13,18,30,1.70
2009,11,13,18,31,1.70
2009,11,13,18,32,1.70
2009,11,13,18,33,1.60
2009,11,13,18,34,1.60
2009,11,13,18,35,1.60
2009,11,13,18,36,1.50
2009,11,13,18,37,1.50
2009,11,13,18,38,1.40
2009,11,13,18,39,1.50
2009,11,13,18,40,1.50
2009,11,13,18,41,1.60
2009,11,13,18,42,1.60
2009,11,13,18,43,1.70
2009,11,13,18,44,1.70
2009,11,13,18,45,1.70
2009,11,13,18,46,1.70
2009,11,13,18,47,1.80
2009,11,13,18,48,1.80
2009,11,13,18,49,1.80
2009,11,13,18,50,1.80
2009,11,13,18,51,1.80
2009,11,13,18,52,1.90
2009,11,13,18,53,1.90
2009,11,13,18,54,2.00
2009,11,13,18,55,2.10
2009,11,13,18,56,2.10
2009,11,13,18,57,2.20
2009,11,13,18,58,2.20
2009,11,13,18,59,2.30
2009,11,13,19,00,2.30
2009,11,13,19,01,2.30
2009,11,13,19,02,2.30
2009,11,13,19,03,2.30
2009,11,13,19,04,2.40
2009,11,13,19,05,2.40
2009,11,13,19,06,2.50
2009,11,13,19,07,2.50
2009,11,13,19,08,2.50
2009,11,13,19,09,2.50
2009,11,13,19,10,2.50
2009,11,13,19,11,2.40
2009,11,13,19,12,2.40
2009,11,13,19,13,2.40
2009,11,13,19,14,2.40
2009,11,13,19,15,2.40
2009,11,13,19,16,2.40
2009,11,13,19,17,2.40
2009,11,13,19,18,2.30
2009,11,13,19,19,2.20